Location: Bottom School (historical)
(37.9078°N, 89.3593°W)
Time: 17:19:53
(UTC+00:00)

Cosmos 1570 Rocket - Pass Details

Date: 10 July 2022
Orbit: 762 x 788 km, 74.1° (Epoch: 18 August)

Event Time Altitude Azimuth Distance (km) Brightness Sun altitude
Exits shadow 06:01:46 16° 81° (E) 1,947 6.1 -29.9°
Drops below altitude 10° 06:03:54 10° 58° (ENE) 2,311 6.8 -29.9°
Sets 06:07:07 0° 38° (NE) 3,248 8.0 -29.9°
